This demonstration page uses our WeatherBlox Daily Observations layout. Learn more.

Left ArrowRight Arrow

Hourly Observations for August 24, 2020

Temp ( °F °C ) Dew Point ( °F °C ) Humidity (%) Winds ( mph kmh ) Pressure ( in mb ) Visibility ( mi km ) Precip ( " mm )
12:52 am 00:52 Clear 71 21.7 64 17.8 79 79 S 3 6 30.02 1017 10 16 0.00 0.00
1:52 am 01:52 Clear 70 21.1 64 17.8 82 82 Calm 30.02 1017 10 16 0.00 0.00
2:52 am 02:52 Clear 72 22.2 64 17.8 76 76 Calm 30.02 1017 10 16 0.00 0.00
3:52 am 03:52 Clear 67 19.4 62 16.7 84 84 Calm 30.03 1017 10 16 0.00 0.00
4:52 am 04:52 Clear 67 19.4 62 16.7 84 84 Calm 30.02 1017 10 16 0.00 0.00
5:52 am 05:52 Clear 68 20 63 17.2 84 84 SSW 3 6 30.04 1017 10 16 0.00 0.00
6:52 am 06:52 Sunny 66 18.9 62 16.7 87 87 SSE 3 6 30.06 1018 10 16 0.00 0.00
7:52 am 07:52 Sunny 72 22.2 66 18.9 82 82 SSW 5 7 30.08 1019 7 11 0.00 0.00
8:52 am 08:52 Sunny 78 25.6 65 18.3 64 64 SW 3 6 30.10 1019 10 16 0.00 0.00
9:52 am 09:52 Sunny 84 28.9 64 17.8 51 51 WNW 5 7 30.09 1019 10 16 0.00 0.00
10:52 am 10:52 Sunny 87 30.6 62 16.7 43 43 WSW 6 9 30.09 1019 10 16 0.00 0.00
11:52 am 11:52 Sunny 89 31.7 64 17.8 43 43 VRB 6 9 30.08 1019 10 16 0.00 0.00
12:52 pm 12:52 Mostly Sunny 92 33.3 64 17.8 40 40 VRB 3 6 30.07 1018 10 16 0.00 0.00
1:52 pm 13:52 Mostly Cloudy 93 33.9 64 17.8 38 38 W 8 13 30.05 1018 10 16 0.00 0.00
2:52 pm 14:52 Mostly Sunny 93 33.9 62 16.7 36 36 SW 7 11 30.03 1017 10 16 0.00 0.00
3:52 pm 15:52 Partly Cloudy 92 33.3 62 16.7 37 37 ENE 7 11 30.02 1017 10 16 0.00 0.00
4:52 pm 16:52 Partly Cloudy 94 34.4 64 17.8 37 37 ENE 10 17 30.00 1016 10 16 0.00 0.00
5:52 pm 17:52 Sunny 92 33.3 63 17.2 38 38 N 7 11 29.99 1016 10 16 0.00 0.00
6:52 pm 18:52 Sunny 91 32.8 63 17.2 39 39 NNE 7 11 29.98 1015 10 16 0.00 0.00
7:52 pm 19:52 Sunny 87 30.6 64 17.8 46 46 NE 6 9 29.98 1015 10 16 0.00 0.00
8:52 pm 20:52 Clear 81 27.2 65 18.3 58 58 N 3 6 30.00 1016 10 16 0.00 0.00
9:52 pm 21:52 Clear 81 27.2 65 18.3 58 58 Calm 30.01 1016 10 16 0.00 0.00
10:52 pm 22:52 Clear 78 25.6 66 18.9 67 67 NNE 5 7 30.02 1017 10 16 0.00 0.00
11:52 pm 23:52 Clear 78 25.6 66 18.9 67 67 ENE 6 9 30.02 1017 10 16 0.00 0.00

Powered by AerisWeather